星链-30601 (STARLINK-30601 )

导读

STARLINK-30601是美国SpaceX公司星链(Starlink)星座中的一颗卫星,于2023年10月21日发射入轨。星链项目旨在构建全球低轨卫星互联网,为基础设施匮乏地区提供高速低延迟宽带服务。该卫星属于星链星座组网的组成部分,单星重约数百千克,配备太阳能供电与相控阵天线,遵循星座设计完成轨道部署,支撑全球连续覆盖的网络服务,退役后可快速离轨减少太空垃圾。

基本信息
目录编号:
58117
目录名称:
STARLINK-30601
国际标识:
2023-161W
轨道中心:
EARTH
卫星名称:
星链-30601
卫星全名:
星链-30601 (STARLINK-30601 )
卫星状态:
在轨 (已飞行1056 天)
发射日期:
2023-10-21 UTC
国别 :
美国 (US)
星等 :
--
该卫星已列入 空间交会检测服务 Space Conjunction Data Service (SCDS) ,当前飞行风险评估等级: 高风险
轨道信息
数据来源 国际轨道数据
星历时间: 2026-09-10T23:38:11+0800
23小时前
查看轨道信息
半长轴: 6840.847km
偏心率: 0.0001374
轨道倾角: 53.163°
近地点辐角 99.740°
升交点赤经 25.449°
平近点角 260.376°
近地点: 461.77km
远地点: 463.65km
周期: 93.848分钟
每日圈数: 15.34398
详细信息
固有亮度:
5
最大亮度:
0.3
卫星平台:
Starlink v2.0 mini
覆盖范围:
全球
运营商:
太空探索技术公司
运营商所在国:
美国
制造商(研发单位):
太空探索技术公司
制造商所在国:
美国
使用方式:
暂无
卫星简介
星链(Starlink)计划是由太空探索技术公司(SpaceX)提出的一个巨型低轨卫星互联网星座项目,计划在2019年至2024年间在太空搭建由约1.2万颗卫星组成的“星链”网络,其中1584颗将部署在地球上空550千米处的近地轨道,并从2020年开始工作。该卫星仍在工作。
2D轨道图
3D轨道图
轨道高度分析图
轨道倾角分析图
轨道综合分析图
查看轨道综合分析图
交会数据列表
事件ID 空间交会对象 最接近时刻(TCA) 交会距离 交会风险概率(CRP) 交会风险指数(CRI) 操作
CDM_260913-100405-811706-567721
2026-09-13T
10:04:04+0000
0.283 km
中距离
5.093165E-4 高风险 0.89
CDM_260912-143105-811706-567721
2026-09-12T
14:31:41+0000
1.046 km
极远距离
2.030912E-5 中风险 0.61
CDM_260913-124505-811706-467621
2026-09-13T
12:45:11+0000
0.895 km
远距离
1.693717E-5 中风险 0.6
CDM_260913-163905-811706-467621
2026-09-13T
16:39:40+0000
1.348 km
极远距离
4.193327E-6 低风险 0.47
CDM_260912-125705-811706-567721
2026-09-12T
12:57:54+0000
2.043 km
极远距离
2.405531E-6 低风险 0.43
CDM_260913-042905-811706-827321
2026-09-13T
04:29:58+0000
2.214 km
极远距离
1.954094E-6 低风险 0.41
CDM_260913-083005-811706-567721
2026-09-13T
08:30:16+0000
2.568 km
极远距离
1.497263E-6 低风险 0.39
CDM_260913-060305-811706-827321
2026-09-13T
06:03:46+0000
2.868 km
极远距离
1.245342E-6 低风险 0.37
与全量物体交会距离演化趋势
与全量物体交会风险概率演化趋势